Tracking 27112 objects as of 28-Mar-2023
HD Live streaming from Space Station
objects crossing your sky now

RESURS O1 DEB

Track RESURS O1 DEB now!
10-day predictions


NORAD ID: 46899
Int'l Code: 1994-074CF
Perigee: 435.5 km
Apogee: 450.8 km
Inclination: 97.8 °
Period: 93.3 minutes
Semi major axis: 6814 km
RCS: Unknown
Launch date: November 4, 1994
Source: Commonwealth of Independent States (former USSR) (CIS)
Launch site: TYURATAM MISSILE AND SPACE COMPLEX (TTMTR)

Note: This is SATELLITE DEBRIS
Your satellite tracking list
Your tracking list is empty




NASA's NSSDC Master Catalog

Two Line Element Set (TLE):
1 46899U 94074CF  23074.12785839  .00959099  00000-0  19618-1 0  9996
2 46899  97.8342 134.4166 0011212 252.0380 107.9644 15.43422685128016
Source of the keplerian elements: AFSPC